Temperature
23 24 24 24 24 24 24 24 24 24 24 23 23 23 24 23 22 22 22 22 21 21 20 19 19 18 18 18 18 17 17 17 17 16 16 16 16 16 15 15 15 15 15 14
24 24 24 24 23 23 24 24 24 24 23 23 23 23 24 23 22 22 22 22 21 21 20 19 19 18 18 18 18 18 17 17 17 16 16 16 16 16 15 15 15 15 14 14
24 24 23 23 23 23 23 24 24 23 23 23 23 24 24 23 22 22 21 21 21 21 20 20 19 18 18 18 18 17 17 17 17 16 16 16 16 16 15 15 15 15 14 14
24 24 23 23 23 23 23 23 23 23 23 23 23 23 24 24 23 22 22 21 21 20 20 19 19 18 18 18 17 17 17 17 17 16 16 16 16 16 15 15 15 15 14 14
23 23 23 23 24 23 23 23 23 23 23 23 24 23 24 24 23 23 23 21 21 20 19 19 18 18 18 17 17 17 17 17 16 16 16 16 16 15 15 15 15 14 14 14
23 23 23 24 23 23 23 23 23 23 23 23 23 23 24 24 23 23 23 22 21 20 19 18 18 18 17 17 17 17 17 16 16 16 16 16 15 15 15 15 15 14 14 14
23 23 23 23 23 23 23 23 23 23 23 23 23 23 24 24 23 23 22 22 20 20 19 18 18 17 17 17 17 17 16 16 16 16 16 15 15 15 15 15 14 14 14 14
23 23 23 23 23 23 23 24 23 22 23 23 23 23 24 23 22 22 21 21 20 20 19 18 18 17 17 17 16 16 16 16 16 16 16 15 15 15 15 14 14 14 14 14
23 23 22 22 23 23 23 23 24 23 23 23 24 24 24 23 23 22 21 21 20 20 19 18 18 17 17 16 16 16 16 16 16 15 15 15 15 15 15 14 14 14 14 14
23 22 22 22 22 22 23 23 23 23 22 22 23 23 24 23 23 23 22 21 20 19 19 18 17 17 17 16 16 16 16 16 15 15 15 15 15 15 14 14 14 14 14 14
22 22 22 22 22 23 22 22 23 23 23 22 22 23 24 23 23 22 22 21 20 19 19 18 17 17 17 16 16 16 16 15 15 15 15 15 15 14 14 14 14 14 13 13
21 22 22 22 22 21 22 23 23 22 22 22 22 23 23 23 22 22 21 20 20 19 18 18 17 17 17 16 16 16 15 15 15 15 15 14 14 14 14 14 14 13 13 13
21 21 21 22 21 21 21 21 22 22 22 22 22 23 23 22 22 21 21 20 19 18 18 17 17 17 16 16 16 16 15 15 15 15 14 14 14 14 14 13 13 13 13 13
19 21 21 21 22 21 21 21 21 21 21 22 22 23 23 23 22 21 20 20 19 18 18 17 17 17 16 16 16 16 15 15 15 15 14 14 14 14 13 13 13 13 13 13
20 21 21 21 20 20 20 20 20 21 22 22 22 22 22 22 22 21 20 20 19 18 18 17 17 16 16 16 16 16 15 15 15 14 14 14 14 13 13 13 13 13 13 12
19 20 20 19 19 19 19 20 20 20 21 21 21 21 22 21 20 20 20 19 19 18 18 17 17 17 16 16 16 15 15 15 15 14 14 14 13 13 13 13 13 13 12 12
19 19 19 19 19 19 19 20 20 20 20 20 20 21 20 20 20 19 19 18 18 18 17 17 17 17 16 16 16 15 15 15 14 14 14 13 13 13 13 13 13 12 12 12
18 18 19 19 18 18 20 20 19 19 19 19 19 19 19 18 18 17 17 17 17 17 16 16 16 16 16 16 15 15 15 14 14 14 13 13 13 13 13 12 12 12 12 12
17 18 18 18 18 19 19 19 18 18 19 18 18 18 17 17 17 18 17 16 16 16 16 16 16 16 16 15 15 15 14 14 14 14 13 13 13 12 12 12 12 12 12 11
16 17 18 17 17 18 19 18 17 18 18 17 17 17 17 17 19 18 16 15 15 15 15 15 15 15 15 15 15 14 14 14 14 13 13 13 13 12 12 12 12 11 11 11
16 16 16 17 17 18 18 17 17 18 18 16 16 16 16 16 16 15 14 14 14 14 15 15 15 15 15 14 14 14 14 14 13 13 13 13 12 12 12 12 11 11 11 11
17 17 16 17 17 17 17 16 17 17 16 16 15 15 15 14 14 14 14 14 14 14 14 14 14 14 14 14 14 14 14 13 13 13 13 12 12 12 12 12 11 11 11 11
16 17 17 17 17 16 15 16 15 14 15 15 14 14 14 13 13 13 13 13 13 13 13 14 14 14 14 14 13 13 13 13 13 12 12 12 12 12 12 11 11 11 11 11
16 15 15 16 16 15 14 14 13 13 14 13 13 13 13 13 13 12 12 13 13 13 13 13 13 13 13 13 13 13 13 13 12 12 12 11 11 11 11 11 11 11 11 10
15 14 15 15 15 15 14 13 13 13 13 13 13 12 12 12 12 12 12 12 12 12 12 12 12 12 12 12 12 12 12 12 12 11 11 11 11 11 11 11 11 11 11 11
14 14 14 15 15 15 14 13 13 12 12 12 12 12 12 12 12 12 12 11 11 12 12 12 12 12 12 12 12 12 12 12 11 11 11 11 10 10 10 10 10 10 10 10
Wind_Speed
4 5 4 3 3 3 2 3 3 1 1 3 5 5 3 4 6 6 6 6 6 5 4 4 4 4 4 5 5 4 5 5 4 3 3 2 2 2 2 2 3 3 3 3
5 5 3 2 3 4 5 5 4 1 1 3 5 6 4 4 6 6 6 6 6 5 5 5 4 4 4 5 5 5 5 5 4 3 2 2 2 2 2 2 2 2 2 2
6 2 3 5 6 7 7 6 4 3 2 4 5 4 4 4 4 4 5 5 5 5 5 6 5 4 4 5 5 4 4 5 5 4 3 3 3 2 2 2 2 2 2 1
4 3 4 5 5 5 5 3 5 5 5 3 3 4 2 3 4 5 5 5 5 5 5 5 5 5 5 4 4 4 4 4 4 5 4 4 3 2 1 1 1 2 2 2
4 3 5 6 4 5 3 1 4 5 6 6 5 6 2 3 4 4 5 5 5 5 6 6 5 5 5 4 4 4 4 4 4 4 5 4 3 2 2 1 2 1 1 1
4 3 4 3 2 3 3 3 3 4 6 6 4 5 3 1 2 2 3 5 5 6 6 6 5 5 5 5 4 4 4 5 4 4 4 4 3 3 3 2 2 1 1 1
6 6 4 4 5 5 6 6 4 4 4 3 1 5 3 1 1 2 2 4 6 6 6 6 6 6 5 5 5 4 5 5 5 4 4 4 3 3 3 2 2 2 1 1
6 5 4 4 6 5 6 7 5 4 4 3 3 5 1 1 0 2 3 4 5 6 6 6 6 6 6 5 5 5 5 4 5 5 4 4 3 2 2 2 2 2 2 1
4 2 2 1 3 5 5 6 5 6 6 6 4 3 2 2 2 2 3 4 5 6 5 6 6 6 6 6 5 5 5 5 4 4 4 4 3 3 2 2 2 2 2 2
3 4 2 2 3 1 3 3 4 5 4 6 5 6 3 2 1 2 3 4 5 5 5 5 6 6 6 5 5 5 5 5 4 4 4 3 4 3 3 3 3 2 2 2
4 5 4 4 6 6 5 5 6 6 6 6 5 2 1 0 1 1 2 3 5 5 5 5 5 6 6 6 6 5 5 5 4 5 4 4 4 4 4 3 3 3 3 3
2 4 6 5 2 3 6 7 8 8 7 7 7 3 3 0 1 2 2 3 4 5 5 5 5 6 6 6 6 6 6 5 5 5 5 5 4 4 4 4 3 3 3 3
2 4 5 5 4 4 4 5 7 7 7 8 9 5 3 1 2 2 3 3 4 5 5 5 6 6 6 6 7 6 6 6 5 5 6 5 5 5 5 5 4 4 4 4
2 5 7 8 5 2 5 6 7 9 9 11 12 11 6 6 6 5 4 4 5 5 6 6 6 7 7 7 7 7 7 6 6 6 6 6 6 6 5 5 4 4 4 4
3 7 8 8 7 7 9 10 10 12 13 13 12 11 10 8 7 6 6 5 5 6 6 7 7 7 7 7 7 7 7 7 7 7 7 6 6 5 5 5 5 4 4 4
3 5 6 8 7 8 12 13 12 13 13 14 14 12 8 7 6 6 6 6 6 6 7 7 8 8 8 8 8 8 7 7 7 7 7 6 6 6 6 5 5 4 4 4
4 5 6 8 5 7 11 10 10 9 9 10 11 8 6 6 7 7 7 6 6 6 6 7 8 8 8 8 8 8 7 7 7 7 7 6 6 6 6 5 4 5 5 4
6 7 5 6 6 9 2 1 3 6 6 5 6 6 6 7 7 7 6 6 8 8 7 7 7 7 7 7 7 6 6 7 7 7 7 6 6 6 6 5 5 5 5 5
7 7 6 6 8 9 5 2 2 5 4 2 3 4 6 6 6 4 4 6 8 8 8 7 6 6 5 5 6 6 6 6 7 7 7 6 6 6 6 6 6 6 5 5
5 7 7 7 8 7 2 2 1 4 5 1 2 4 6 5 5 5 8 9 8 7 6 5 4 4 4 5 5 6 6 6 6 7 7 6 6 7 7 7 7 6 6 6
5 6 10 11 10 8 1 0 3 6 2 1 3 5 5 5 6 8 9 9 8 7 5 4 3 3 4 4 5 7 7 7 6 6 6 7 7 7 7 6 6 6 6 5
7 6 8 8 10 7 2 3 4 3 3 2 3 4 5 7 8 9 9 9 8 7 6 4 3 3 3 4 5 7 7 6 5 6 6 7 7 6 6 6 6 6 6 6
7 6 5 6 5 2 1 2 3 4 4 4 5 6 7 8 9 9 9 9 8 7 6 4 4 4 3 4 5 6 6 5 5 6 7 7 7 6 6 6 6 6 6 6
5 4 6 8 8 6 5 5 5 5 5 6 6 7 7 8 9 9 9 8 8 7 6 5 4 4 4 4 5 5 5 5 5 6 6 7 7 6 6 5 6 6 6 6
6 5 7 10 9 8 7 7 7 6 6 7 7 7 7 8 9 9 9 9 8 7 6 5 5 5 5 5 5 5 4 5 5 5 6 6 6 6 6 6 6 7 7 6
8 9 9 10 8 7 8 7 7 8 8 7 7 7 7 8 9 9 9 8 8 7 7 6 6 5 5 5 5 5 5 5 6 5 5 5 5 5 5 5 5 4 5 6
Wind_Direction
189 207 208 206 236 272 247 258 260 258 224 256 264 271 249 216 217 223 217 213 210 203 192 180 179 181 183 187 191 181 176 173 167 166 165 147 126 111 97 80 77 84 79 76
199 213 218 222 217 236 242 253 262 257 193 251 275 274 250 230 223 226 224 215 209 198 187 182 182 177 178 180 188 184 182 176 174 174 162 152 129 113 92 98 107 101 95 90
225 184 170 199 211 229 245 256 268 284 277 232 275 257 211 208 208 212 221 221 211 203 197 185 180 178 178 184 188 184 178 175 178 174 161 147 134 143 140 132 110 103 109 117
238 229 197 207 219 241 247 260 260 254 264 271 268 288 232 204 206 206 211 212 208 197 194 187 180 178 182 182 182 181 170 172 170 170 172 172 178 175 158 143 132 138 142 143
212 210 216 224 228 234 265 269 248 254 264 271 250 269 240 182 219 219 211 205 202 192 185 181 179 179 177 167 169 176 169 167 164 174 173 186 186 181 161 165 162 165 142 158
234 219 245 249 221 216 186 203 211 236 249 256 260 261 267 205 261 247 207 198 193 188 181 177 170 168 163 160 160 166 169 166 166 179 185 190 184 187 179 189 186 185 164 182
222 217 220 226 216 189 213 241 245 232 228 251 215 254 262 360 314 270 237 198 188 185 180 176 171 170 167 167 168 168 171 174 176 187 197 194 194 195 190 189 194 213 213 207
233 224 209 221 242 237 224 242 255 273 268 272 219 246 250 44 277 240 213 188 176 177 180 177 175 174 172 171 174 177 177 178 180 189 195 196 190 197 188 190 203 223 232 237
241 230 132 237 254 242 224 233 268 275 275 273 246 238 233 171 173 177 178 176 177 176 178 177 174 175 173 173 175 179 179 180 183 191 193 195 195 200 206 210 211 222 236 240
256 254 216 186 188 200 263 217 221 243 265 264 256 248 234 180 198 174 177 187 184 181 185 182 178 177 176 175 176 179 184 183 184 191 197 202 202 204 218 220 220 234 244 249
240 243 220 201 226 230 194 207 230 243 252 266 272 246 59 302 314 255 215 201 192 190 192 189 186 183 179 178 179 185 189 194 193 202 204 206 204 209 208 218 218 233 248 250
230 253 251 241 236 298 249 238 231 244 244 249 270 271 96 119 305 279 262 224 209 202 199 195 190 188 188 190 193 196 197 199 202 208 211 214 209 218 219 218 220 235 251 258
202 240 254 235 203 197 225 229 235 250 258 249 252 252 137 239 287 286 268 253 223 214 209 202 199 200 199 201 204 203 208 207 204 209 215 215 215 222 228 225 222 237 242 249
242 243 253 266 294 276 254 242 231 235 246 254 253 267 263 278 290 294 284 257 237 223 220 215 212 213 211 210 214 211 215 210 208 213 221 221 221 223 225 227 229 242 246 245
254 254 253 262 270 265 266 262 245 243 254 263 269 272 278 288 294 298 296 272 246 236 231 226 223 222 220 218 220 218 216 213 213 217 223 226 228 222 221 223 233 241 246 249
245 252 254 256 251 257 261 258 253 251 255 259 267 270 285 294 296 300 298 284 263 253 248 242 236 230 225 221 222 221 219 216 217 221 225 223 225 220 217 222 229 236 246 250
224 240 252 260 256 267 258 248 242 241 244 254 262 278 309 300 302 308 310 301 290 282 269 258 250 242 236 229 224 221 219 215 218 222 224 221 222 221 222 221 227 231 238 244
232 237 247 262 257 251 262 37 265 250 253 264 276 297 305 306 307 305 307 307 305 301 287 273 262 250 240 232 226 222 216 213 217 220 220 219 221 222 222 224 228 233 236 240
231 230 238 247 255 266 259 227 222 243 249 285 280 302 317 321 297 286 332 321 311 307 301 286 271 255 239 225 215 212 214 215 218 220 221 222 223 221 222 227 232 232 230 236
205 225 235 239 250 254 244 126 255 246 235 91 324 325 328 325 297 321 346 333 321 317 310 299 278 253 233 221 210 211 216 218 224 225 224 224 226 223 225 228 232 232 227 230
193 211 229 240 249 258 299 132 213 234 268 51 326 324 321 306 306 318 324 325 325 320 314 304 277 251 239 225 217 220 222 227 232 231 226 222 224 225 226 226 229 229 225 228
223 223 227 234 241 250 117 171 226 287 342 308 311 317 310 307 313 315 318 321 323 320 315 307 286 268 253 233 227 230 231 234 233 229 228 225 224 222 220 220 222 223 221 224
231 240 249 241 254 328 206 234 288 316 302 309 311 312 309 308 310 314 316 316 316 315 311 307 295 281 265 243 236 240 243 239 232 228 228 227 223 222 220 215 215 217 217 221
233 249 252 258 258 267 263 260 271 277 284 300 306 303 298 301 306 310 313 312 312 309 306 302 294 283 278 267 256 252 247 236 233 232 229 225 223 219 219 218 218 219 220 223
247 233 249 260 268 271 262 259 268 276 281 291 299 297 291 294 297 303 308 307 304 302 299 292 284 281 281 279 270 261 245 232 235 236 235 227 223 221 221 220 224 226 229 230
236 236 245 258 262 264 274 280 280 279 280 285 292 294 293 289 293 300 304 303 297 296 297 291 286 284 284 283 276 267 247 233 233 235 235 232 225 223 223 223 230 240 243 236
Height
1524 1524 1524 1523 1523 1523 1524 1526 1527 1526 1526 1529 1527 1525 1525 1527 1529 1529 1530 1531 1532 1534 1536 1537 1538 1538 1539 1540 1541 1542 1542 1543 1543 1544 1545 1546 1546 1546 1546 1545 1545 1544 1544 1543
1523 1523 1522 1523 1525 1526 1525 1527 1526 1525 1526 1527 1525 1524 1522 1524 1525 1527 1527 1528 1530 1532 1534 1535 1536 1537 1538 1539 1540 1541 1542 1543 1543 1544 1545 1545 1545 1546 1546 1545 1545 1545 1544 1544
1520 1521 1523 1524 1525 1526 1525 1525 1524 1526 1526 1525 1526 1523 1520 1521 1524 1525 1526 1527 1528 1530 1531 1533 1535 1536 1537 1538 1539 1540 1541 1542 1543 1543 1544 1545 1545 1545 1546 1546 1545 1545 1544 1544
1520 1521 1522 1523 1523 1524 1525 1523 1524 1526 1526 1525 1527 1527 1517 1517 1519 1522 1524 1525 1526 1528 1530 1532 1533 1535 1536 1537 1538 1539 1540 1541 1542 1543 1544 1545 1545 1546 1546 1546 1545 1545 1544 1543
1521 1521 1522 1522 1521 1522 1522 1523 1523 1524 1524 1525 1522 1525 1516 1515 1517 1517 1520 1522 1524 1526 1528 1530 1531 1533 1534 1535 1536 1538 1539 1540 1541 1542 1542 1544 1545 1545 1545 1545 1545 1544 1544 1543
1519 1522 1521 1520 1521 1522 1523 1524 1524 1523 1523 1530 1522 1525 1520 1512 1514 1515 1517 1520 1522 1525 1527 1528 1530 1531 1533 1534 1535 1536 1538 1539 1539 1540 1542 1543 1543 1544 1544 1544 1544 1544 1543 1542
1520 1519 1520 1521 1521 1522 1522 1524 1529 1530 1530 1526 1520 1523 1518 1511 1513 1515 1516 1518 1521 1523 1525 1527 1528 1530 1531 1532 1533 1535 1536 1537 1538 1539 1541 1541 1542 1543 1543 1543 1543 1542 1542 1542
1521 1521 1517 1518 1518 1518 1519 1519 1529 1535 1531 1522 1519 1520 1512 1511 1514 1515 1516 1517 1519 1521 1523 1525 1526 1528 1529 1531 1532 1533 1535 1536 1537 1538 1539 1540 1540 1541 1541 1541 1541 1541 1541 1540
1517 1519 1517 1519 1518 1517 1518 1518 1516 1521 1522 1525 1516 1512 1509 1510 1512 1514 1515 1516 1518 1520 1522 1524 1525 1526 1528 1529 1530 1532 1533 1534 1535 1536 1537 1538 1539 1539 1539 1539 1539 1539 1539 1538
1514 1519 1517 1518 1519 1519 1517 1515 1519 1523 1530 1530 1520 1515 1511 1509 1509 1511 1513 1515 1517 1519 1521 1522 1524 1525 1526 1528 1529 1530 1531 1533 1533 1534 1535 1536 1536 1536 1537 1537 1537 1537 1537 1537
1515 1517 1517 1517 1517 1515 1519 1520 1517 1517 1519 1526 1525 1516 1505 1507 1509 1510 1512 1514 1515 1517 1519 1521 1522 1523 1525 1526 1527 1528 1529 1530 1531 1532 1533 1533 1534 1534 1534 1534 1534 1534 1535 1534
1517 1515 1515 1514 1514 1516 1514 1513 1515 1521 1519 1518 1520 1516 1505 1508 1509 1511 1512 1513 1514 1516 1517 1519 1520 1521 1522 1524 1525 1526 1527 1528 1528 1529 1530 1531 1531 1532 1532 1532 1532 1532 1532 1532
1518 1517 1519 1518 1519 1518 1516 1515 1515 1514 1515 1517 1520 1514 1506 1508 1509 1510 1511 1512 1513 1514 1515 1516 1517 1518 1519 1521 1522 1523 1524 1525 1526 1526 1527 1528 1528 1528 1529 1529 1529 1529 1529 1528
1520 1515 1518 1521 1515 1515 1516 1517 1516 1515 1516 1514 1512 1507 1504 1505 1507 1508 1509 1510 1511 1512 1513 1514 1514 1515 1516 1518 1519 1520 1521 1522 1522 1523 1524 1524 1524 1525 1526 1526 1526 1526 1526 1525
1519 1516 1514 1514 1515 1516 1516 1515 1514 1514 1510 1510 1505 1505 1503 1503 1506 1507 1508 1508 1509 1509 1510 1511 1511 1512 1513 1514 1515 1516 1517 1518 1518 1519 1520 1520 1521 1522 1522 1522 1522 1522 1522 1522
1518 1517 1516 1516 1515 1515 1515 1512 1511 1510 1509 1507 1506 1505 1503 1505 1506 1506 1506 1506 1506 1506 1507 1508 1508 1509 1510 1510 1511 1512 1513 1514 1514 1515 1516 1517 1517 1518 1518 1518 1519 1519 1519 1518
1517 1516 1517 1514 1514 1515 1512 1505 1505 1506 1505 1506 1505 1503 1504 1504 1505 1505 1505 1505 1504 1504 1504 1504 1505 1505 1506 1507 1507 1508 1509 1510 1510 1511 1512 1513 1513 1514 1514 1514 1514 1515 1515 1515
1516 1516 1515 1514 1516 1519 1504 1503 1504 1505 1506 1506 1506 1505 1506 1506 1505 1505 1504 1503 1502 1502 1501 1501 1501 1501 1502 1503 1504 1504 1505 1506 1506 1507 1508 1508 1509 1509 1510 1510 1510 1511 1511 1511
1516 1515 1515 1514 1514 1507 1503 1503 1505 1505 1504 1506 1506 1506 1506 1505 1503 1501 1502 1501 1500 1499 1498 1498 1498 1498 1498 1499 1499 1500 1501 1501 1502 1503 1503 1504 1505 1505 1506 1506 1506 1507 1507 1507
1516 1515 1514 1513 1515 1510 1502 1503 1505 1505 1503 1505 1506 1505 1505 1504 1500 1500 1501 1500 1498 1496 1495 1494 1494 1494 1494 1494 1495 1496 1496 1497 1498 1498 1499 1499 1500 1501 1501 1502 1502 1503 1503 1503
1513 1513 1513 1511 1510 1501 1500 1504 1505 1507 1502 1505 1505 1505 1505 1504 1504 1503 1500 1498 1496 1494 1492 1491 1491 1490 1490 1491 1491 1492 1492 1493 1493 1494 1494 1495 1496 1496 1497 1497 1498 1498 1499 1499
1506 1507 1507 1507 1508 1504 1502 1503 1503 1502 1503 1503 1504 1504 1504 1503 1502 1500 1498 1495 1493 1491 1490 1489 1488 1487 1487 1487 1488 1487 1488 1488 1489 1489 1489 1490 1491 1491 1492 1493 1493 1494 1494 1495
1504 1502 1501 1501 1501 1501 1502 1502 1503 1503 1503 1503 1502 1502 1502 1500 1499 1497 1495 1493 1491 1489 1488 1486 1485 1484 1484 1484 1484 1484 1484 1484 1484 1484 1484 1485 1486 1487 1487 1488 1489 1490 1490 1491
1502 1505 1503 1501 1498 1500 1501 1501 1502 1502 1502 1501 1501 1500 1499 1498 1496 1494 1492 1490 1488 1487 1485 1483 1482 1481 1480 1480 1480 1480 1480 1480 1480 1479 1480 1480 1481 1482 1483 1483 1484 1485 1485 1486
1500 1502 1500 1498 1498 1499 1498 1499 1499 1499 1499 1498 1498 1497 1496 1495 1493 1491 1489 1487 1485 1484 1482 1480 1479 1478 1477 1476 1476 1476 1476 1475 1475 1475 1475 1476 1476 1477 1478 1478 1479 1480 1480 1481
1498 1498 1497 1494 1494 1495 1495 1496 1496 1496 1495 1495 1494 1493 1492 1491 1489 1488 1486 1484 1482 1480 1478 1477 1475 1474 1473 1473 1472 1472 1472 1471 1471 1471 1471 1471 1471 1472 1473 1473 1474 1474 1475 1476